• en Belgique
  • Liste des pays
  • À 7 jours
  • Température de l'eau
  • Carte satellitaire
  • Carte météo
  • Widgets météo
  • user-avatar
    Se connecter

    Météo par heure à Ans

    Ce jour, 23 Novembre, Jeudi

    Heure Température Précipitation Vent Pression Humidité
    00:00 +9°C° 0 mm 7 m/s 738 mmHg 64%
    01:00 +9°C° 0 mm 7 m/s 738 mmHg 65%
    02:00 +9°C° 0 mm 8 m/s 737 mmHg 66%
    03:00 +9°C° 0 mm 8 m/s 737 mmHg 68%
    04:00 +9°C° 0 mm 8 m/s 737 mmHg 67%
    05:00 +9°C° 0 mm 8 m/s 737 mmHg 67%
    06:00 +9°C° 0 mm 7 m/s 736 mmHg 67%
    07:00 +10°C° 0 mm 8 m/s 736 mmHg 67%
    08:00 +10°C° 0 mm 9 m/s 737 mmHg 66%
    09:00 +11°C° 0 mm 11 m/s 737 mmHg 65%
    10:00 +11°C° 0 mm 10 m/s 737 mmHg 66%
    11:00 +12°C° 0 mm 10 m/s 738 mmHg 67%
    12:00 +13°C° 0 mm 9 m/s 738 mmHg 68%
    13:00 +12°C° 0,1 mm 8 m/s 739 mmHg 72%
    14:00 +12°C° 0,1 mm 7 m/s 739 mmHg 75%
    15:00 +13°C° 0,1 mm 6 m/s 740 mmHg 79%
    16:00 +11°C° 0,3 mm 6 m/s 741 mmHg 81%
    17:00 +12°C° 0,3 mm 5 m/s 741 mmHg 83%
    18:00 +10°C° 0,3 mm 5 m/s 742 mmHg 85%
    19:00 +10°C° 0,1 mm 4 m/s 742 mmHg 86%
    20:00 +10°C° 0,1 mm 3 m/s 742 mmHg 87%
    21:00 +9°C° 0,1 mm 3 m/s 743 mmHg 87%
    22:00 +9°C° 0 mm 3 m/s 743 mmHg 88%
    23:00 +9°C° 0 mm 3 m/s 742 mmHg 88%

    Demain, 24 Novembre, Vendredi

    Heure Température Précipitation Vent Pression Humidité
    00:00 +9°C° 0 mm 2 m/s 742 mmHg 88%
    01:00 +10°C° 0,7 mm 4 m/s 742 mmHg 88%
    02:00 +9°C° 0,7 mm 5 m/s 741 mmHg 88%
    03:00 +10°C° 0,7 mm 6 m/s 740 mmHg 89%
    04:00 +10°C° 0,2 mm 7 m/s 740 mmHg 87%
    05:00 +10°C° 0,2 mm 8 m/s 739 mmHg 85%
    06:00 +11°C° 0,2 mm 8 m/s 739 mmHg 83%
    07:00 +11°C° 0,2 mm 8 m/s 739 mmHg 83%
    08:00 +11°C° 0,2 mm 8 m/s 740 mmHg 82%
    09:00 +11°C° 0,2 mm 8 m/s 740 mmHg 82%
    10:00 +10°C° 0,2 mm 7 m/s 741 mmHg 82%
    11:00 +9°C° 0,2 mm 6 m/s 741 mmHg 82%
    12:00 +8°C° 0,2 mm 5 m/s 742 mmHg 82%
    13:00 +7°C° 0 mm 4 m/s 743 mmHg 81%
    14:00 +7°C° 0 mm 4 m/s 744 mmHg 81%
    15:00 +7°C° 0 mm 3 m/s 744 mmHg 81%
    16:00 +6°C° 0 mm 2 m/s 745 mmHg 83%
    17:00 +6°C° 0 mm 2 m/s 745 mmHg 86%
    18:00 +6°C° 0 mm 1 m/s 746 mmHg 89%
    19:00 +6°C° 0 mm 1 m/s 746 mmHg 89%
    20:00 +6°C° 0 mm 1 m/s 746 mmHg 89%
    21:00 +6°C° 0 mm 1 m/s 746 mmHg 88%
    22:00 +5°C° 0 mm 1 m/s 746 mmHg 88%
    23:00 +5°C° 0 mm 1 m/s 746 mmHg 88%

    Après-demain, 25 Novembre, Samedi

    Heure Température Précipitation Vent Pression Humidité
    00:00 +5°C° 0 mm 1 m/s 745 mmHg 88%
    01:00 +5°C° 0 mm 1 m/s 745 mmHg 88%
    02:00 +5°C° 0 mm 1 m/s 744 mmHg 88%
    03:00 +5°C° 0 mm 1 m/s 744 mmHg 89%
    04:00 +5°C° 0 mm 1 m/s 743 mmHg 90%
    05:00 +5°C° 0 mm 1 m/s 743 mmHg 91%
    06:00 +5°C° 0 mm 1 m/s 742 mmHg 92%
    07:00 +5°C° 0,4 mm 1 m/s 742 mmHg 91%
    08:00 +4°C° 0,4 mm 2 m/s 742 mmHg 91%
    09:00 +5°C° 0,4 mm 2 m/s 742 mmHg 90%
    10:00 +5°C° 1,1 mm 2 m/s 741 mmHg 90%
    11:00 +5°C° 1,1 mm 2 m/s 741 mmHg 90%
    12:00 +4°C° 1,1 mm 3 m/s 741 mmHg 90%
    13:00 +4°C° 2 mm 4 m/s 742 mmHg 89%
    14:00 +3°C° 2 mm 4 m/s 742 mmHg 89%
    15:00 +2°C° 2 mm 5 m/s 742 mmHg 89%
    16:00 +2°C° 0,9 mm 5 m/s 743 mmHg 87%
    17:00 +2°C° 0,9 mm 5 m/s 744 mmHg 85%
    18:00 +2°C° 0,9 mm 5 m/s 745 mmHg 83%
    19:00 +1°C° 0,1 mm 5 m/s 746 mmHg 83%
    20:00 +1°C° 0,1 mm 4 m/s 747 mmHg 84%
    21:00 0°C° 0,1 mm 4 m/s 748 mmHg 84%
    22:00 0°C° 0 mm 4 m/s 749 mmHg 85%
    23:00 0°C° 0 mm 4 m/s 749 mmHg 86%

    26 Novembre, Dimanche

    Heure Température Précipitation Vent Pression Humidité
    00:00 -1°C° 0 mm 5 m/s 749 mmHg 87%
    01:00 -1°C° 0 mm 5 m/s 750 mmHg 87%
    02:00 -1°C° 0 mm 5 m/s 750 mmHg 87%
    03:00 -1°C° 0 mm 5 m/s 750 mmHg 87%
    04:00 -2°C° 0 mm 4 m/s 750 mmHg 87%
    05:00 -2°C° 0 mm 4 m/s 750 mmHg 87%
    06:00 -2°C° 0 mm 4 m/s 750 mmHg 87%
    07:00 -1°C° 0 mm 5 m/s 751 mmHg 85%
    08:00 -1°C° 0 mm 5 m/s 751 mmHg 84%
    09:00 0°C° 0 mm 5 m/s 751 mmHg 82%
    10:00 +1°C° 0 mm 6 m/s 751 mmHg 80%
    11:00 +2°C° 0 mm 6 m/s 751 mmHg 77%
    12:00 +3°C° 0 mm 6 m/s 751 mmHg 75%
    13:00 +2°C° 0,1 mm 6 m/s 751 mmHg 76%
    14:00 +2°C° 0,1 mm 5 m/s 751 mmHg 78%
    15:00 +2°C° 0,1 mm 5 m/s 751 mmHg 79%
    16:00 +2°C° 0,1 mm 5 m/s 751 mmHg 81%
    17:00 +1°C° 0,1 mm 5 m/s 751 mmHg 82%
    18:00 +1°C° 0,1 mm 5 m/s 751 mmHg 84%
    19:00 +1°C° 0,1 mm 5 m/s 752 mmHg 85%
    20:00 0°C° 0,1 mm 4 m/s 752 mmHg 86%
    21:00 0°C° 0,1 mm 4 m/s 752 mmHg 86%
    22:00 0°C° 0,1 mm 4 m/s 752 mmHg 87%
    23:00 0°C° 0,1 mm 4 m/s 752 mmHg 87%

    27 Novembre, Lundi

    Heure Température Précipitation Vent Pression Humidité
    00:00 0°C° 0,1 mm 4 m/s 752 mmHg 87%
    01:00 0°C° 0,1 mm 4 m/s 752 mmHg 88%
    02:00 -1°C° 0,1 mm 4 m/s 752 mmHg 88%
    03:00 -1°C° 0,1 mm 4 m/s 752 mmHg 89%
    04:00 -1°C° 0 mm 4 m/s 752 mmHg 88%
    05:00 -1°C° 0 mm 4 m/s 752 mmHg 88%
    06:00 -1°C° 0 mm 4 m/s 752 mmHg 88%
    07:00 0°C° 0 mm 4 m/s 751 mmHg 87%
    08:00 0°C° 0 mm 5 m/s 751 mmHg 85%
    09:00 +1°C° 0 mm 5 m/s 751 mmHg 83%
    10:00 +1°C° 0 mm 5 m/s 750 mmHg 83%
    11:00 +2°C° 0 mm 6 m/s 750 mmHg 83%
    12:00 +3°C° 0 mm 7 m/s 749 mmHg 83%
    13:00 +3°C° 0,2 mm 7 m/s 748 mmHg 84%
    14:00 +3°C° 0,2 mm 7 m/s 747 mmHg 85%
    15:00 +2°C° 0,2 mm 8 m/s 746 mmHg 85%
    16:00 +2°C° 0,3 mm 8 m/s 746 mmHg 85%
    17:00 +2°C° 0,3 mm 9 m/s 745 mmHg 84%
    18:00 +2°C° 0,3 mm 9 m/s 744 mmHg 83%
    19:00 +2°C° 1,2 mm 9 m/s 743 mmHg 85%
    20:00 +2°C° 1,2 mm 8 m/s 743 mmHg 87%
    21:00 +2°C° 1,2 mm 8 m/s 742 mmHg 88%
    22:00 +3°C° 0,7 mm 7 m/s 742 mmHg 88%
    23:00 +3°C° 0,7 mm 7 m/s 742 mmHg 88%

    28 Novembre, Mardi

    Heure Température Précipitation Vent Pression Humidité
    00:00 +3°C° 0,7 mm 6 m/s 741 mmHg 87%
    01:00 +3°C° 0,1 mm 6 m/s 741 mmHg 87%
    02:00 +3°C° 0,1 mm 6 m/s 741 mmHg 87%
    03:00 +2°C° 0,1 mm 6 m/s 741 mmHg 87%
    04:00 +2°C° 0 mm 5 m/s 741 mmHg 88%
    05:00 +2°C° 0 mm 5 m/s 741 mmHg 89%
    06:00 +1°C° 0 mm 4 m/s 741 mmHg 90%
    07:00 +3°C° 0 mm 4 m/s 741 mmHg 90%
    08:00 +3°C° 0 mm 4 m/s 741 mmHg 90%
    09:00 +3°C° 0 mm 4 m/s 741 mmHg 89%
    10:00 +4°C° 0,1 mm 4 m/s 741 mmHg 87%
    11:00 +4°C° 0,1 mm 4 m/s 740 mmHg 84%
    12:00 +5°C° 0,1 mm 5 m/s 740 mmHg 81%
    13:00 +5°C° 0 mm 4 m/s 740 mmHg 81%
    14:00 +4°C° 0 mm 4 m/s 740 mmHg 82%
    15:00 +4°C° 0 mm 4 m/s 740 mmHg 83%
    16:00 +3°C° 0 mm 4 m/s 740 mmHg 86%
    17:00 +2°C° 0 mm 3 m/s 740 mmHg 88%
    18:00 +1°C° 0 mm 3 m/s 740 mmHg 91%
    19:00 +1°C° 0,1 mm 3 m/s 740 mmHg 92%
    20:00 +1°C° 0,1 mm 3 m/s 740 mmHg 93%
    21:00 +1°C° 0,1 mm 3 m/s 740 mmHg 94%
    22:00 +1°C° 0,2 mm 3 m/s 740 mmHg 93%
    23:00 +1°C° 0,2 mm 3 m/s 740 mmHg 93%
    Voir plus